Simultaneous Nadir Overpasses (SNOs) Predictions

Prediction of SNOs between METOP-B and NPP Satellite Orbit:

Table of predicted SNOs for the next 14.0 days since TLE Epoch: 8/17/2018
Index Date (METOP-B) Time (METOP-B) Lat,Lon (METOP-B) SZA (METOP-B ) Date (NPP) Time (NPP) Lat,Lon (NPP) SZA (NPP ) Distance(km) Time Diff (sec)
1 08/30/2018 13:27:16 73.64, -28.76 64.80 08/30/2018 13:26:09 73.63, -31.55 64.93 87.40 67
2 08/30/2018 14:17:59 -73.55, 138.37 115.27 08/30/2018 14:16:51 -73.56, 135.94 115.14 76.74 68
3 08/30/2018 15:08:43 73.31, -54.83 64.53 08/30/2018 15:07:32 73.34, -56.24 64.63 44.99 71
4 08/30/2018 15:59:27 -73.23, 112.31 115.54 08/30/2018 15:58:15 -73.26, 111.23 115.44 34.66 72
5 08/30/2018 16:50:10 73.03, -80.78 64.30 08/30/2018 16:48:56 73.04, -80.96 64.33 5.91 74
6 08/30/2018 17:40:53 -73.00, 86.48 115.72 08/30/2018 17:39:40 -73.02, 86.40 115.69 3.02 73
7 08/30/2018 18:31:32 73.01,-106.17 64.30 08/30/2018 18:30:25 72.99,-106.23 64.30 2.99 67
8 08/30/2018 19:22:15 -72.98, 61.09 115.72 08/30/2018 19:21:09 -72.97, 61.13 115.71 1.60 66
9 08/30/2018 20:12:54 72.98,-131.56 64.31 08/30/2018 20:11:55 72.99,-131.61 64.33 1.86 59
10 08/30/2018 21:03:37 -72.95, 35.70 115.71 08/30/2018 21:02:39 -72.97, 35.75 115.69 2.69 58
11 08/30/2018 21:54:16 72.96,-156.95 64.31 08/30/2018 21:53:24 72.95,-156.89 64.30 2.76 52
12 08/30/2018 22:44:58 -72.98, 10.41 115.67 08/30/2018 22:44:09 -72.98, 10.37 115.66 1.52 49
13 08/30/2018 23:35:38 72.93, 177.65 64.31 08/30/2018 23:34:54 72.95, 177.73 64.33 3.06 44
14 08/31/2018 00:26:20 -72.95, -14.98 115.66 08/31/2018 00:25:39 -72.98, -15.02 115.63 2.91 41
15 08/31/2018 01:16:59 72.96, 152.37 64.36 08/31/2018 01:16:24 72.95, 152.35 64.36 1.09 35
16 08/31/2018 02:07:42 -72.93, -40.37 115.66 08/31/2018 02:07:08 -72.93, -40.29 115.66 2.76 34
17 08/31/2018 02:58:21 72.93, 126.97 64.36 08/31/2018 02:57:54 72.95, 126.97 64.39 2.15 27




NCC Satellite Simultaneous Nadir Overpasses (SNOs) Prediction Service
